When you browse on this site, cookies collect data to enhance your experience and personalize the content and advertising you see.
Visit our Privacy Policy to learn more. By continuing to use the site, you agree to this use of cookies and data.
  • In Österreich
  • Länderverzeichnis
  • Für 7 Tage
  • Wassertemperatur
  • Satellitenkarten
  • Wetterkarte
  • News
  • Widgets
  • user-avatar
    Anmelden

    Stündliche Wetter Stratford

    Heute, 21 Juli, Sonntag

    Zeit Temperatur Niederschläge Wind Luftdruck Luftfeuchtigkeit
    00:00 +29°C° 0.5 mm 3 m/S 755 mmHg 80%
    01:00 +28°C° 0 mm 2 m/S 755 mmHg 82%
    02:00 +28°C° 0 mm 2 m/S 755 mmHg 83%
    03:00 +28°C° 0 mm 2 m/S 755 mmHg 84%
    04:00 +27°C° 0 mm 2 m/S 754 mmHg 85%
    05:00 +28°C° 0 mm 2 m/S 755 mmHg 83%
    06:00 +29°C° 0 mm 3 m/S 755 mmHg 81%
    07:00 +30°C° 0 mm 2 m/S 756 mmHg 76%
    08:00 +31°C° 0 mm 3 m/S 756 mmHg 67%
    09:00 +34°C° 0 mm 3 m/S 756 mmHg 59%
    10:00 +35°C° 0 mm 4 m/S 755 mmHg 50%
    11:00 +36°C° 0 mm 4 m/S 755 mmHg 48%
    12:00 +37°C° 0 mm 4 m/S 755 mmHg 45%
    13:00 +38°C° 0 mm 4 m/S 755 mmHg 42%
    14:00 +38°C° 0 mm 4 m/S 754 mmHg 41%
    15:00 +38°C° 0 mm 4 m/S 754 mmHg 40%
    16:00 +40°C° 0 mm 5 m/S 754 mmHg 38%
    17:00 +37°C° 0.3 mm 4 m/S 755 mmHg 45%
    18:00 +35°C° 0.3 mm 4 m/S 755 mmHg 52%
    19:00 +33°C° 0.3 mm 4 m/S 755 mmHg 59%
    20:00 +32°C° 0.2 mm 4 m/S 756 mmHg 65%
    21:00 +30°C° 0.2 mm 4 m/S 756 mmHg 71%
    22:00 +28°C° 0.2 mm 3 m/S 756 mmHg 76%
    23:00 +27°C° 0.3 mm 3 m/S 756 mmHg 75%

    Morgen, 22 Juli, Montag

    Zeit Temperatur Niederschläge Wind Luftdruck Luftfeuchtigkeit
    00:00 +26°C° 0.3 mm 3 m/S 757 mmHg 74%
    01:00 +25°C° 0.3 mm 2 m/S 757 mmHg 72%
    02:00 +24°C° 0.1 mm 2 m/S 757 mmHg 70%
    03:00 +24°C° 0.1 mm 2 m/S 756 mmHg 69%
    04:00 +23°C° 0.1 mm 2 m/S 756 mmHg 67%
    05:00 +24°C° 0.3 mm 2 m/S 757 mmHg 67%
    06:00 +25°C° 0.3 mm 2 m/S 757 mmHg 67%
    07:00 +25°C° 0.3 mm 1 m/S 757 mmHg 67%
    08:00 +26°C° 0.6 mm 1 m/S 757 mmHg 64%
    09:00 +27°C° 0.6 mm 1 m/S 757 mmHg 62%
    10:00 +29°C° 0.6 mm 1 m/S 756 mmHg 60%
    11:00 +29°C° 0.2 mm 2 m/S 756 mmHg 56%
    12:00 +30°C° 0.2 mm 2 m/S 756 mmHg 53%
    13:00 +31°C° 0.2 mm 3 m/S 755 mmHg 50%
    14:00 +31°C° 0 mm 3 m/S 755 mmHg 52%
    15:00 +30°C° 0 mm 3 m/S 755 mmHg 55%
    16:00 +30°C° 0 mm 4 m/S 754 mmHg 58%
    17:00 +28°C° 1 mm 4 m/S 754 mmHg 67%
    18:00 +26°C° 1 mm 3 m/S 754 mmHg 76%
    19:00 +24°C° 1 mm 3 m/S 754 mmHg 86%
    20:00 +24°C° 0.8 mm 3 m/S 754 mmHg 87%
    21:00 +22°C° 0.8 mm 3 m/S 754 mmHg 88%
    22:00 +21°C° 0.8 mm 3 m/S 754 mmHg 89%
    23:00 +21°C° 0.1 mm 3 m/S 754 mmHg 88%

    übermorgen, 23 Juli, Dienstag

    Zeit Temperatur Niederschläge Wind Luftdruck Luftfeuchtigkeit
    00:00 +20°C° 0.1 mm 3 m/S 754 mmHg 87%
    01:00 +20°C° 0.1 mm 3 m/S 754 mmHg 87%
    02:00 +20°C° 0.4 mm 4 m/S 754 mmHg 88%
    03:00 +19°C° 0.4 mm 4 m/S 754 mmHg 89%
    04:00 +19°C° 0.4 mm 4 m/S 754 mmHg 90%
    05:00 +19°C° 2 mm 4 m/S 755 mmHg 90%
    06:00 +19°C° 2 mm 4 m/S 755 mmHg 91%
    07:00 +19°C° 2 mm 4 m/S 755 mmHg 91%
    08:00 +20°C° 0.5 mm 4 m/S 755 mmHg 86%
    09:00 +21°C° 0.5 mm 4 m/S 756 mmHg 80%
    10:00 +22°C° 0.5 mm 4 m/S 756 mmHg 75%
    11:00 +24°C° 0.1 mm 3 m/S 756 mmHg 72%
    12:00 +25°C° 0.1 mm 2 m/S 756 mmHg 69%
    13:00 +26°C° 0.1 mm 1 m/S 757 mmHg 66%
    14:00 +26°C° 0.3 mm 1 m/S 756 mmHg 69%
    15:00 +25°C° 0.3 mm 1 m/S 756 mmHg 72%
    16:00 +25°C° 0.3 mm 1 m/S 756 mmHg 75%
    17:00 +24°C° 0.2 mm 1 m/S 757 mmHg 77%
    18:00 +24°C° 0.2 mm 2 m/S 757 mmHg 79%
    19:00 +23°C° 0.2 mm 2 m/S 757 mmHg 81%
    20:00 +23°C° 0.4 mm 2 m/S 758 mmHg 82%
    21:00 +21°C° 0.4 mm 2 m/S 758 mmHg 84%
    22:00 +22°C° 0.4 mm 1 m/S 758 mmHg 86%
    23:00 +22°C° 0.2 mm 1 m/S 758 mmHg 86%

    24 Juli, Mittwoch

    Zeit Temperatur Niederschläge Wind Luftdruck Luftfeuchtigkeit
    00:00 +21°C° 0.2 mm 1 m/S 758 mmHg 86%
    01:00 +21°C° 0.2 mm 1 m/S 758 mmHg 86%
    02:00 +20°C° 0 mm 2 m/S 759 mmHg 84%
    03:00 +19°C° 0 mm 2 m/S 759 mmHg 83%
    04:00 +19°C° 0 mm 3 m/S 759 mmHg 82%
    05:00 +19°C° 0 mm 3 m/S 759 mmHg 79%
    06:00 +20°C° 0 mm 3 m/S 760 mmHg 76%
    07:00 +21°C° 0 mm 4 m/S 760 mmHg 74%
    08:00 +22°C° 0 mm 3 m/S 760 mmHg 64%
    09:00 +25°C° 0 mm 3 m/S 761 mmHg 55%
    10:00 +27°C° 0 mm 2 m/S 761 mmHg 45%
    11:00 +28°C° 0 mm 2 m/S 761 mmHg 43%
    12:00 +28°C° 0 mm 1 m/S 761 mmHg 41%
    13:00 +29°C° 0 mm 1 m/S 760 mmHg 38%
    14:00 +29°C° 0 mm 1 m/S 760 mmHg 39%
    15:00 +29°C° 0 mm 1 m/S 760 mmHg 39%
    16:00 +29°C° 0 mm 1 m/S 760 mmHg 40%
    17:00 +27°C° 0 mm 1 m/S 760 mmHg 44%
    18:00 +26°C° 0 mm 2 m/S 760 mmHg 49%
    19:00 +25°C° 0 mm 2 m/S 761 mmHg 54%
    20:00 +24°C° 0 mm 1 m/S 761 mmHg 56%
    21:00 +23°C° 0 mm 1 m/S 761 mmHg 58%
    22:00 +22°C° 0 mm 1 m/S 762 mmHg 59%
    23:00 +22°C° 0 mm 1 m/S 762 mmHg 59%

    25 Juli, Donnerstag

    Zeit Temperatur Niederschläge Wind Luftdruck Luftfeuchtigkeit
    00:00 +21°C° 0 mm 2 m/S 762 mmHg 60%
    01:00 +20°C° 0 mm 2 m/S 762 mmHg 60%
    02:00 +20°C° 0 mm 2 m/S 762 mmHg 60%
    03:00 +20°C° 0 mm 2 m/S 762 mmHg 61%
    04:00 +19°C° 0 mm 2 m/S 763 mmHg 62%
    05:00 +20°C° 0 mm 2 m/S 763 mmHg 61%
    06:00 +21°C° 0 mm 2 m/S 763 mmHg 59%
    07:00 +23°C° 0 mm 1 m/S 763 mmHg 58%
    08:00 +25°C° 0 mm 1 m/S 764 mmHg 53%
    09:00 +27°C° 0 mm 1 m/S 764 mmHg 47%
    10:00 +29°C° 0 mm 1 m/S 764 mmHg 42%
    11:00 +29°C° 0 mm 1 m/S 764 mmHg 40%
    12:00 +30°C° 0 mm 1 m/S 764 mmHg 39%
    13:00 +30°C° 0 mm 1 m/S 764 mmHg 37%
    14:00 +30°C° 0 mm 2 m/S 764 mmHg 38%
    15:00 +30°C° 0 mm 2 m/S 763 mmHg 39%
    16:00 +30°C° 0 mm 2 m/S 763 mmHg 41%
    17:00 +29°C° 0 mm 3 m/S 764 mmHg 46%
    18:00 +27°C° 0 mm 3 m/S 764 mmHg 52%
    19:00 +26°C° 0 mm 4 m/S 765 mmHg 58%
    20:00 +25°C° 0 mm 3 m/S 765 mmHg 61%
    21:00 +25°C° 0 mm 3 m/S 765 mmHg 64%
    22:00 +24°C° 0 mm 3 m/S 766 mmHg 67%
    23:00 +24°C° 0 mm 3 m/S 766 mmHg 69%

    26 Juli, Freitag

    Zeit Temperatur Niederschläge Wind Luftdruck Luftfeuchtigkeit
    00:00 +24°C° 0 mm 2 m/S 766 mmHg 71%
    01:00 +23°C° 0 mm 2 m/S 766 mmHg 74%
    02:00 +23°C° 0 mm 2 m/S 766 mmHg 76%
    03:00 +23°C° 0 mm 1 m/S 766 mmHg 78%
    04:00 +22°C° 0 mm 1 m/S 766 mmHg 79%
    05:00 +23°C° 0 mm 1 m/S 766 mmHg 75%
    06:00 +24°C° 0 mm 1 m/S 767 mmHg 71%
    07:00 +25°C° 0 mm 1 m/S 767 mmHg 67%
    08:00 +27°C° 0 mm 1 m/S 767 mmHg 61%
    09:00 +29°C° 0 mm 1 m/S 767 mmHg 55%
    10:00 +31°C° 0 mm 1 m/S 767 mmHg 49%
    11:00 +31°C° 0 mm 1 m/S 767 mmHg 47%
    12:00 +31°C° 0 mm 1 m/S 767 mmHg 46%
    13:00 +32°C° 0 mm 2 m/S 767 mmHg 44%
    14:00 +31°C° 0 mm 2 m/S 767 mmHg 45%
    15:00 +31°C° 0 mm 3 m/S 767 mmHg 46%
    16:00 +31°C° 0 mm 3 m/S 767 mmHg 47%
    17:00 +29°C° 0 mm 3 m/S 767 mmHg 51%
    18:00 +28°C° 0 mm 4 m/S 767 mmHg 56%
    19:00 +27°C° 0 mm 4 m/S 767 mmHg 60%
    20:00 +26°C° 0 mm 4 m/S 767 mmHg 61%
    21:00 +25°C° 0 mm 3 m/S 768 mmHg 62%
    22:00 +25°C° 0 mm 3 m/S 768 mmHg 63%
    23:00 +24°C° 0 mm 3 m/S 768 mmHg 64%
    Mehr zeigen